Tracking 29489 objects as of 10-Sep-2024
HD Live streaming from Space Station
objects crossing your sky now

FENGYUN 1C DEB

Track FENGYUN 1C DEB now!
10-day predictions


NORAD ID: 31892
Int'l Code: 1999-025CKT
Perigee: 625.3 km
Apogee: 927.6 km
Inclination: 99.2 °
Period: 100.2 minutes
Semi major axis: 7147 km
RCS: 0.0129 m2 (small)
Launch date: May 10, 1999
Source: People's Republic of China (PRC)
Launch site: Taiyaun Space Center, China (TSC)

Note: This is SATELLITE DEBRIS
Your satellite tracking list
Your tracking list is empty




NASA's NSSDC Master Catalog

Two Line Element Set (TLE):
1 31892U 99025CKT 24252.07036691  .00015269  00000-0  40117-2 0  9993
2 31892  99.2386  18.2648 0211527 194.6533 164.8459 14.36731979582787
Source of the keplerian elements: AFSPC